Torna al catalogo

NOAA 16 DEB

LostSSO
NORAD 41497·DEBRIS·🇺🇸 United States

Lanciato Sep 21, 2000 da Vandenberg Space Force Base

Loading…

Prossimi Passaggi (prossime 24 ore)

TLE

ObsoletoSource: Space-Track

Epoca: Aug 16, 2019, 23:01 UTC

1 41497U 00055LV  19228.95923191  .00000282  00000-0  19624-3 0  9993
2 41497  98.7981 286.9928 0037353  33.1731 327.1769 14.06113561176717

Traccia NOAA 16 DEB in tempo reale con AllMySat

Download on the App Store